Total_Precipitation_Accumulation
0.01 0.00 0.00 0.00 0.01 0.02 0.02 0.02 0.01 0.01 0.01 0.01 0.02 0.03 0.04 0.02 0.01 0.01 0.01 0.01 0.02 0.01 0.01 0.02 0.03 0.07 0.14 0.15 0.14 0.18 0.24 0.30 0.28 0.24 0.29 0.40 0.47 0.58 0.68 0.83 0.88 1.06 1.12 1.03
0.01 0.00 0.00 0.00 0.00 0.01 0.02 0.01 0.01 0.01 0.01 0.01 0.01 0.01 0.03 0.02 0.02 0.01 0.01 0.01 0.01 0.01 0.01 0.01 0.01 0.02 0.02 0.05 0.06 0.10 0.15 0.23 0.30 0.32 0.37 0.50 0.66 0.76 0.83 0.95 0.99 1.08 1.03 1.00
0.00 0.00 0.00 0.00 0.00 0.00 0.00 0.00 0.00 0.00 0.00 0.00 0.00 0.01 0.02 0.03 0.03 0.02 0.02 0.03 0.03 0.03 0.02 0.02 0.01 0.01 0.01 0.02 0.05 0.10 0.18 0.31 0.47 0.62 0.82 1.06 1.32 1.42 1.30 1.16 1.21 1.32 1.34 1.26
0.00 0.00 0.00 0.00 0.00 0.00 0.00 0.00 0.00 0.01 0.01 0.00 0.00 0.00 0.02 0.05 0.06 0.07 0.08 0.09 0.09 0.07 0.06 0.05 0.04 0.03 0.05 0.09 0.16 0.26 0.38 0.53 0.67 0.86 1.07 1.32 1.54 1.71 1.72 1.73 1.76 1.72 1.63 1.49
0.00 0.00 0.00 0.00 0.00 0.00 0.00 0.00 0.00 0.00 0.01 0.01 0.00 0.01 0.04 0.11 0.17 0.22 0.25 0.25 0.23 0.19 0.18 0.17 0.14 0.13 0.16 0.26 0.37 0.48 0.69 0.83 0.93 0.96 1.05 1.26 1.37 1.42 1.55 1.70 1.77 1.74 1.62 1.48
0.00 0.00 0.00 0.00 0.00 0.00 0.00 0.00 0.00 0.00 0.01 0.01 0.00 0.04 0.13 0.24 0.32 0.40 0.40 0.36 0.33 0.26 0.23 0.25 0.28 0.28 0.32 0.53 0.76 0.89 0.98 1.04 0.99 0.95 0.95 1.08 1.22 1.30 1.39 1.51 1.56 1.47 1.33 1.29
0.00 0.00 0.00 0.00 0.00 0.00 0.00 0.00 0.01 0.01 0.02 0.03 0.03 0.11 0.26 0.28 0.27 0.31 0.33 0.32 0.29 0.21 0.19 0.23 0.32 0.44 0.62 0.87 1.09 1.22 1.20 1.09 0.93 0.88 0.92 0.97 1.08 1.20 1.25 1.23 1.21 1.13 1.06 1.04
0.00 0.00 0.00 0.00 0.00 0.00 0.00 0.00 0.03 0.03 0.03 0.05 0.11 0.27 0.38 0.30 0.21 0.16 0.16 0.17 0.19 0.24 0.30 0.31 0.37 0.56 0.83 1.08 1.32 1.57 1.54 1.28 1.07 0.99 1.02 1.00 1.02 1.01 0.95 0.90 0.90 0.89 0.85 0.82
0.00 0.00 0.00 0.00 0.00 0.00 0.00 0.01 0.03 0.08 0.05 0.06 0.12 0.26 0.29 0.20 0.14 0.12 0.14 0.18 0.23 0.31 0.40 0.49 0.61 0.70 0.91 1.12 1.44 1.71 1.74 1.51 1.35 1.25 1.17 1.12 0.98 0.85 0.73 0.65 0.61 0.60 0.56 0.53
0.00 0.00 0.00 0.00 0.00 0.00 0.01 0.02 0.05 0.13 0.13 0.11 0.15 0.24 0.19 0.11 0.10 0.13 0.19 0.24 0.29 0.37 0.42 0.57 0.83 1.04 1.27 1.22 1.35 1.58 1.49 1.42 1.37 1.35 1.34 1.23 1.03 0.86 0.77 0.68 0.61 0.53 0.49 0.44
0.00 0.00 0.00 0.00 0.00 0.01 0.03 0.05 0.06 0.12 0.17 0.20 0.28 0.33 0.22 0.18 0.20 0.26 0.32 0.35 0.38 0.45 0.50 0.64 0.81 0.96 1.15 1.26 1.28 1.32 1.28 1.28 1.24 1.14 1.10 0.97 0.78 0.66 0.62 0.62 0.56 0.46 0.42 0.41
0.00 0.00 0.00 0.00 0.01 0.04 0.10 0.12 0.12 0.20 0.26 0.31 0.45 0.50 0.33 0.33 0.38 0.45 0.52 0.54 0.58 0.59 0.62 0.72 0.80 0.94 1.03 1.04 1.09 1.16 1.09 1.05 1.00 0.89 0.80 0.70 0.54 0.48 0.52 0.51 0.44 0.33 0.31 0.31
0.00 0.00 0.00 0.00 0.01 0.08 0.25 0.31 0.22 0.19 0.28 0.42 0.55 0.56 0.48 0.50 0.57 0.67 0.77 0.76 0.69 0.64 0.62 0.68 0.71 0.81 0.87 0.92 0.98 1.07 1.01 1.01 0.99 0.84 0.69 0.62 0.56 0.52 0.51 0.44 0.36 0.27 0.25 0.27
0.00 0.00 0.00 0.01 0.03 0.12 0.30 0.39 0.30 0.26 0.40 0.45 0.50 0.58 0.62 0.70 0.79 0.81 0.81 0.76 0.64 0.52 0.44 0.41 0.40 0.48 0.54 0.61 0.71 0.81 0.78 0.95 1.10 1.03 0.83 0.72 0.65 0.56 0.46 0.36 0.31 0.27 0.30 0.34
0.00 0.00 0.00 0.01 0.01 0.05 0.14 0.23 0.22 0.25 0.32 0.35 0.39 0.48 0.62 0.70 0.78 0.76 0.66 0.50 0.37 0.28 0.22 0.18 0.17 0.22 0.29 0.39 0.45 0.52 0.65 0.85 0.88 0.72 0.53 0.46 0.43 0.38 0.30 0.25 0.22 0.21 0.21 0.21
0.00 0.00 0.00 0.00 0.00 0.00 0.01 0.03 0.05 0.08 0.12 0.17 0.25 0.39 0.49 0.52 0.51 0.47 0.36 0.23 0.15 0.12 0.09 0.07 0.05 0.07 0.10 0.13 0.20 0.31 0.39 0.45 0.42 0.35 0.28 0.24 0.20 0.17 0.15 0.15 0.13 0.10 0.08 0.09
0.00 0.00 0.00 0.00 0.00 0.00 0.00 0.01 0.04 0.09 0.12 0.18 0.30 0.39 0.35 0.33 0.30 0.28 0.20 0.11 0.07 0.05 0.04 0.03 0.03 0.04 0.03 0.03 0.03 0.05 0.08 0.11 0.10 0.08 0.06 0.06 0.06 0.06 0.05 0.05 0.05 0.06 0.06 0.06
0.00 0.00 0.00 0.00 0.00 0.00 0.00 0.00 0.02 0.06 0.12 0.18 0.26 0.26 0.21 0.17 0.13 0.10 0.06 0.03 0.02 0.02 0.01 0.01 0.01 0.01 0.01 0.01 0.01 0.01 0.00 0.01 0.01 0.01 0.01 0.01 0.02 0.03 0.04 0.05 0.04 0.02 0.02 0.03
0.00 0.00 0.00 0.00 0.00 0.00 0.00 0.00 0.00 0.02 0.04 0.05 0.07 0.06 0.05 0.03 0.03 0.01 0.00 0.00 0.01 0.00 0.00 0.00 0.00 0.00 0.00 0.00 0.00 0.00 0.00 0.00 0.00 0.00 0.00 0.00 0.00 0.01 0.01 0.01 0.01 0.00 0.00 0.01
0.00 0.00 0.00 0.00 0.00 0.00 0.00 0.00 0.00 0.01 0.02 0.01 0.01 0.01 0.01 0.00 0.01 0.01 0.00 0.00 0.00 0.00 0.00 0.00 0.00 0.00 0.00 0.00 0.00 0.00 0.00 0.00 0.00 0.00 0.00 0.00 0.00 0.00 0.01 0.01 0.00 0.00 0.00 0.00
0.00 0.00 0.00 0.00 0.00 0.00 0.00 0.00 0.00 0.00 0.01 0.00 0.00 0.00 0.00 0.00 0.00 0.00 0.00 0.00 0.00 0.00 0.00 0.00 0.00 0.00 0.00 0.00 0.00 0.00 0.00 0.00 0.00 0.00 0.00 0.00 0.00 0.00 0.01 0.03 0.02 0.01 0.01 0.00
0.00 0.00 0.00 0.00 0.00 0.00 0.00 0.00 0.00 0.00 0.00 0.00 0.00 0.00 0.00 0.00 0.00 0.00 0.00 0.00 0.00 0.00 0.00 0.00 0.00 0.00 0.00 0.00 0.00 0.00 0.00 0.00 0.00 0.00 0.00 0.00 0.01 0.01 0.02 0.05 0.03 0.02 0.01 0.00
0.00 0.00 0.00 0.00 0.00 0.00 0.00 0.00 0.00 0.00 0.00 0.00 0.00 0.00 0.00 0.00 0.00 0.00 0.00 0.00 0.00 0.00 0.00 0.00 0.00 0.00 0.00 0.00 0.00 0.00 0.00 0.00 0.00 0.00 0.00 0.00 0.00 0.01 0.02 0.02 0.02 0.02 0.01 0.01
0.00 0.00 0.00 0.00 0.00 0.00 0.00 0.00 0.00 0.00 0.00 0.00 0.00 0.00 0.00 0.00 0.00 0.00 0.00 0.00 0.00 0.00 0.00 0.00 0.00 0.00 0.00 0.00 0.00 0.00 0.00 0.00 0.00 0.00 0.00 0.00 0.00 0.01 0.02 0.01 0.01 0.01 0.01 0.01
0.00 0.00 0.00 0.00 0.00 0.00 0.00 0.00 0.00 0.00 0.00 0.00 0.00 0.00 0.00 0.00 0.00 0.00 0.00 0.00 0.00 0.00 0.00 0.00 0.00 0.00 0.00 0.00 0.00 0.00 0.00 0.00 0.00 0.00 0.00 0.00 0.00 0.01 0.02 0.01 0.00 0.00 0.00 0.00
0.00 0.00 0.00 0.00 0.00 0.00 0.00 0.00 0.00 0.00 0.00 0.00 0.00 0.00 0.00 0.00 0.00 0.00 0.00 0.00 0.00 0.00 0.00 0.00 0.00 0.00 0.00 0.00 0.00 0.00 0.00 0.00 0.00 0.00 0.00 0.00 0.00 0.01 0.01 0.02 0.01 0.00 0.00 0.01